2019-096D (44908 NORAD) Tracking and Keplerian Element Data

This shows tracking and keplerian element data for the satellite.

Feedback or suggestion? Click here.




ElementValue
Catalog44908
Name2019-096D
Epoch Orbit1048
Epoch Day68.1793411
Epoch Year2020
RAAN65.6448
Inclination82.5238
Eccentricity0.0016632
Argument of Perigee135.8834
Mean Anonmoly338.2587
Mean Motion12.42878782
Decay Rate-4.214E-05
L11 44908U 19096D 20068.17934110 -.00004214 00000-0 -30510-1 0 9995
L22 44908 82.5238 65.6448 0016632 135.8834 338.2587 12.42878782 10486

Live tracking and technical data element details for 2019-096D (NORAD 44908). 2019-096D can be tracked NOW for your location showing map with azimuth and elevation plus other details from your city location.

Track the satellite on the map from your city or location and see movement details for azimuth, elevation, latitude, longitude, range, height, and movement on the map or in text.







IsCatalogInMostPopularTable: catalog: 44908, numindb: 31
Update: records affected: 1



GetName: 44908 2019-096D

Hit Count: updated at: Thu, 09 Jul 2020 01:38:39 GMT